Home   Weather   Waldkraiburg   Past weeks

Flag for Germany Past Weather in Waldkraiburg, Bavaria, Germany — Yesterday and Last 2 Weeks

Now
27 °F

Ice fog.


Feels Like: 19 °F
Forecast: 21 / 38 °F
Wind: 7 mph from East

Location: Munich / Franz Josef Strauss Airport

Current Time: Dec 5, 2016 at 1:45:13 am

Latest Report: Dec 5, 2016 at 1:20 am


Visibility: 2 mi

Pressure: 30.33 "Hg

Humidity: 100%

Dew Point: 27 °F

Location of WaldkraiburgLocation

Past Weather in Waldkraiburg — Graph

°F

Waldkraiburg Temperature Yesterday

Maximum temperature yesterday: 32 °F (at 2:50 pm)
Minimum temperature yesterday: 16 °F (at 4:20 am)
Average temperature yesterday: 22 °F

High & Low Weather Summary for the Past Weeks

 TemperatureHumidityPressure
High61 °F (Nov 21, 1:50 pm)100% (Nov 20, 1:50 am)30.51 "Hg (Nov 20, 1:50 am)
Low14 °F (Nov 30, 5:20 am)36% (Dec 1, 2:50 pm)29.68 "Hg (Nov 21, 11:50 am)
Average36 °F90%30.11 "Hg
* Reported Nov 20 12:20 am — Dec 5 12:20 am, Waldkraiburg, Weather by CustomWeather, © 2016

Note: Actual official high and low records may vary slightly from our data, if they occured in-between our weather recording intervals... More about our weather records

Advertising

Waldkraiburg Weather History for the Previous 24 Hours

Scroll right to see more
 ConditionsComfort  
Time TempWeatherWind HumidityBarometerVisibility
12:20 am
Mon, Dec 5
27 °FIce fog.2 mph100%30.33 "Hg2 mi
11:50 pm
Sun, Dec 4
27 °FIce fog.6 mph100%30.33 "Hg2 mi
11:20 pm23 °FCold.1 mph100%30.33 "Hg1 mi
10:50 pm23 °FSnow. Overcast.2 mph100%30.33 "Hg1 mi
10:20 pm19 °FSnow. Overcast.2 mph100%30.33 "Hg1 mi
9:50 pm19 °FCold.No wind100%30.33 "Hg3 mi
9:20 pm19 °FFog.No wind100%30.33 "Hg4 mi
8:50 pm19 °FFog.1 mph100%30.33 "Hg4 mi
8:20 pm19 °FFog.1 mph100%30.33 "Hg5 mi
7:50 pm21 °FFog.2 mph100%30.33 "Hg5 mi
7:20 pm21 °FFog.1 mph100%30.33 "Hg5 mi
6:50 pm21 °FFog.1 mph100%30.33 "Hg5 mi
6:20 pm23 °FClear.No wind100%30.33 "Hg6 mi
5:50 pm25 °FPassing clouds.3 mph100%30.33 "HgN/A
5:20 pm27 °FPassing clouds.3 mph100%30.33 "HgN/A
4:50 pm28 °FClear.5 mph93%30.33 "Hg10 mi
4:20 pm28 °FClear.7 mph93%30.30 "Hg10 mi
3:50 pm30 °FScattered clouds.6 mph86%30.30 "HgN/A
3:20 pm30 °FScattered clouds.7 mph86%30.30 "HgN/A
2:50 pm32 °FScattered clouds.7 mph80%30.30 "HgN/A
2:20 pm30 °FScattered clouds.7 mph93%30.30 "HgN/A
1:50 pm30 °FScattered clouds.5 mph86%30.30 "HgN/A
1:20 pm30 °FScattered clouds.6 mph86%30.30 "HgN/A
12:50 pm28 °FPartly sunny.7 mph93%30.33 "HgN/A
12:20 pm28 °FPartly sunny.7 mph100%30.33 "HgN/A
11:50 am27 °FPartly sunny.9 mph100%30.33 "HgN/A
11:20 am27 °FPartly sunny.6 mph100%30.33 "HgN/A
10:50 am27 °FScattered clouds.5 mph93%30.33 "HgN/A
10:20 am25 °FPassing clouds.3 mph100%30.33 "HgN/A
9:50 am23 °FSunny.2 mph100%30.33 "Hg10 mi
9:20 am21 °FSunny.2 mph100%30.33 "Hg10 mi
8:50 am18 °FSunny.No wind100%30.30 "Hg10 mi
8:20 am16 °FSunny.2 mph100%30.30 "Hg10 mi
7:50 am16 °FSunny.1 mph93%30.30 "Hg10 mi
7:20 am16 °FClear.No wind93%30.30 "Hg10 mi
6:50 am16 °FClear.1 mph93%30.27 "Hg10 mi
6:20 am16 °FClear.No wind93%30.27 "Hg10 mi
5:50 am16 °FClear.1 mph100%30.27 "Hg10 mi
5:20 am16 °FClear.1 mph100%30.27 "Hg10 mi
4:50 am16 °FFog.1 mph100%30.27 "HgN/A
4:20 am16 °FFog.2 mph100%30.27 "HgN/A
3:50 am18 °FClear.1 mph100%30.27 "Hg10 mi
3:20 am18 °FClear.2 mph100%30.27 "Hg10 mi
2:50 am18 °FClear.1 mph100%30.27 "Hg10 mi
2:20 am19 °FClear.3 mph100%30.27 "Hg10 mi
1:50 am19 °FClear.3 mph100%30.24 "Hg10 mi
1:20 am21 °FClear.2 mph100%30.24 "Hg10 mi
Weather by CustomWeather, © 2016

See weather overviewHow to use our weather pages